When you browse on this site, cookies collect data to enhance your experience and personalize the content and advertising you see.
Visit our Privacy Policy to learn more. By continuing to use the site, you agree to this use of cookies and data.
  • In Schweiz
  • Länderverzeichnis
  • Für 7 Tage
  • Wassertemperatur
  • Satellitenkarten
  • Wetterkarte
  • Widgets
  • user-avatar
    Anmelden

    Stündliche Wetter Melbourne

    Heute, 23 März, Samstag

    Zeit Temperatur Niederschläge Wind Luftdruck Luftfeuchtigkeit
    00:00 +25°C° 0 mm 4 m/S 757 mmHg 59%
    01:00 +25°C° 0 mm 4 m/S 756 mmHg 58%
    02:00 +25°C° 0 mm 4 m/S 756 mmHg 56%
    03:00 +25°C° 0 mm 5 m/S 756 mmHg 55%
    04:00 +24°C° 0 mm 6 m/S 755 mmHg 54%
    05:00 +24°C° 0 mm 6 m/S 755 mmHg 53%
    06:00 +24°C° 0 mm 6 m/S 755 mmHg 53%
    07:00 +24°C° 0 mm 6 m/S 755 mmHg 52%
    08:00 +26°C° 0 mm 6 m/S 755 mmHg 50%
    09:00 +26°C° 0 mm 7 m/S 755 mmHg 48%
    10:00 +24°C° 0 mm 6 m/S 755 mmHg 56%
    11:00 +27°C° 0 mm 6 m/S 754 mmHg 49%
    12:00 +30°C° 0 mm 6 m/S 754 mmHg 41%
    13:00 +33°C° 0 mm 6 m/S 753 mmHg 34%
    14:00 +34°C° 0 mm 5 m/S 753 mmHg 32%
    15:00 +34°C° 0 mm 4 m/S 753 mmHg 31%
    16:00 +35°C° 0 mm 3 m/S 752 mmHg 29%
    17:00 +32°C° 0 mm 4 m/S 753 mmHg 41%
    18:00 +28°C° 0 mm 4 m/S 753 mmHg 53%
    19:00 +25°C° 0 mm 4 m/S 754 mmHg 65%
    20:00 +23°C° 0 mm 4 m/S 755 mmHg 67%
    21:00 +22°C° 0 mm 3 m/S 755 mmHg 70%
    22:00 +21°C° 0 mm 2 m/S 756 mmHg 72%
    23:00 +22°C° 0 mm 1 m/S 756 mmHg 73%

    Morgen, 24 März, Sonntag

    Zeit Temperatur Niederschläge Wind Luftdruck Luftfeuchtigkeit
    00:00 +22°C° 0 mm 1 m/S 756 mmHg 74%
    01:00 +19°C° 0 mm 0 m/S 757 mmHg 75%
    02:00 +19°C° 0 mm 0 m/S 756 mmHg 76%
    03:00 +19°C° 0 mm 0 m/S 756 mmHg 77%
    04:00 +18°C° 0 mm 0 m/S 756 mmHg 78%
    05:00 +20°C° 0 mm 1 m/S 756 mmHg 79%
    06:00 +20°C° 0 mm 1 m/S 756 mmHg 79%
    07:00 +20°C° 0 mm 1 m/S 756 mmHg 80%
    08:00 +22°C° 0 mm 1 m/S 756 mmHg 70%
    09:00 +24°C° 0 mm 2 m/S 756 mmHg 60%
    10:00 +26°C° 0 mm 3 m/S 756 mmHg 50%
    11:00 +28°C° 0 mm 3 m/S 755 mmHg 44%
    12:00 +30°C° 0 mm 4 m/S 754 mmHg 38%
    13:00 +32°C° 0 mm 5 m/S 753 mmHg 32%
    14:00 +32°C° 0 mm 5 m/S 752 mmHg 33%
    15:00 +32°C° 0 mm 5 m/S 751 mmHg 34%
    16:00 +30°C° 0 mm 5 m/S 750 mmHg 36%
    17:00 +29°C° 0.5 mm 6 m/S 750 mmHg 42%
    18:00 +28°C° 0.5 mm 7 m/S 750 mmHg 47%
    19:00 +27°C° 0.5 mm 7 m/S 750 mmHg 53%
    20:00 +27°C° 0.4 mm 7 m/S 750 mmHg 57%
    21:00 +26°C° 0.4 mm 7 m/S 750 mmHg 61%
    22:00 +24°C° 0.4 mm 8 m/S 750 mmHg 64%
    23:00 +24°C° 0.6 mm 7 m/S 750 mmHg 65%

    übermorgen, 25 März, Montag

    Zeit Temperatur Niederschläge Wind Luftdruck Luftfeuchtigkeit
    00:00 +24°C° 0.6 mm 7 m/S 750 mmHg 66%
    01:00 +24°C° 0.6 mm 7 m/S 749 mmHg 66%
    02:00 +23°C° 0.3 mm 7 m/S 749 mmHg 63%
    03:00 +22°C° 0.3 mm 7 m/S 749 mmHg 59%
    04:00 +21°C° 0.3 mm 6 m/S 749 mmHg 56%
    05:00 +20°C° 0 mm 6 m/S 750 mmHg 54%
    06:00 +19°C° 0 mm 6 m/S 751 mmHg 53%
    07:00 +17°C° 0 mm 6 m/S 752 mmHg 51%
    08:00 +17°C° 0 mm 6 m/S 753 mmHg 46%
    09:00 +17°C° 0 mm 7 m/S 753 mmHg 42%
    10:00 +18°C° 0 mm 7 m/S 754 mmHg 37%
    11:00 +17°C° 0.1 mm 8 m/S 754 mmHg 39%
    12:00 +16°C° 0.1 mm 8 m/S 755 mmHg 42%
    13:00 +15°C° 0.1 mm 8 m/S 755 mmHg 45%
    14:00 +15°C° 0.1 mm 8 m/S 756 mmHg 42%
    15:00 +15°C° 0.1 mm 7 m/S 756 mmHg 39%
    16:00 +15°C° 0.1 mm 6 m/S 756 mmHg 36%
    17:00 +15°C° 0 mm 6 m/S 757 mmHg 36%
    18:00 +15°C° 0 mm 6 m/S 758 mmHg 36%
    19:00 +14°C° 0 mm 6 m/S 759 mmHg 36%
    20:00 +13°C° 0 mm 6 m/S 759 mmHg 38%
    21:00 +13°C° 0 mm 5 m/S 760 mmHg 40%
    22:00 +12°C° 0 mm 5 m/S 761 mmHg 42%
    23:00 +12°C° 0 mm 5 m/S 761 mmHg 45%

    26 März, Dienstag

    Zeit Temperatur Niederschläge Wind Luftdruck Luftfeuchtigkeit
    00:00 +12°C° 0 mm 5 m/S 761 mmHg 48%
    01:00 +11°C° 0 mm 6 m/S 761 mmHg 52%
    02:00 +10°C° 0 mm 6 m/S 762 mmHg 55%
    03:00 +10°C° 0 mm 5 m/S 762 mmHg 58%
    04:00 +10°C° 0 mm 5 m/S 762 mmHg 61%
    05:00 +10°C° 0 mm 5 m/S 763 mmHg 63%
    06:00 +10°C° 0 mm 5 m/S 763 mmHg 64%
    07:00 +10°C° 0 mm 5 m/S 764 mmHg 66%
    08:00 +13°C° 0 mm 5 m/S 764 mmHg 59%
    09:00 +14°C° 0 mm 5 m/S 765 mmHg 53%
    10:00 +16°C° 0 mm 5 m/S 765 mmHg 47%
    11:00 +16°C° 0 mm 5 m/S 765 mmHg 47%
    12:00 +17°C° 0 mm 5 m/S 765 mmHg 46%
    13:00 +19°C° 0 mm 5 m/S 765 mmHg 46%
    14:00 +19°C° 0 mm 5 m/S 765 mmHg 46%
    15:00 +19°C° 0 mm 4 m/S 765 mmHg 46%
    16:00 +20°C° 0 mm 4 m/S 765 mmHg 46%
    17:00 +19°C° 0 mm 3 m/S 765 mmHg 51%
    18:00 +18°C° 0 mm 2 m/S 766 mmHg 56%
    19:00 +17°C° 0 mm 2 m/S 766 mmHg 60%
    20:00 +16°C° 0 mm 2 m/S 767 mmHg 63%
    21:00 +16°C° 0 mm 2 m/S 768 mmHg 66%
    22:00 +15°C° 0 mm 2 m/S 768 mmHg 69%
    23:00 +15°C° 0 mm 2 m/S 768 mmHg 73%

    27 März, Mittwoch

    Zeit Temperatur Niederschläge Wind Luftdruck Luftfeuchtigkeit
    00:00 +15°C° 0 mm 2 m/S 768 mmHg 76%
    01:00 +14°C° 0 mm 2 m/S 768 mmHg 79%
    02:00 +14°C° 0 mm 2 m/S 768 mmHg 81%
    03:00 +14°C° 0 mm 1 m/S 768 mmHg 83%
    04:00 +13°C° 0 mm 1 m/S 768 mmHg 85%
    05:00 +13°C° 0 mm 1 m/S 768 mmHg 86%
    06:00 +13°C° 0 mm 1 m/S 768 mmHg 87%
    07:00 +13°C° 0 mm 1 m/S 769 mmHg 87%
    08:00 +15°C° 0 mm 1 m/S 769 mmHg 77%
    09:00 +19°C° 0 mm 1 m/S 769 mmHg 68%
    10:00 +21°C° 0 mm 1 m/S 769 mmHg 58%
    11:00 +23°C° 0 mm 1 m/S 768 mmHg 51%
    12:00 +24°C° 0 mm 1 m/S 768 mmHg 45%
    13:00 +25°C° 0 mm 1 m/S 767 mmHg 39%
    14:00 +25°C° 0 mm 2 m/S 767 mmHg 38%
    15:00 +25°C° 0 mm 2 m/S 766 mmHg 38%
    16:00 +25°C° 0 mm 2 m/S 765 mmHg 37%
    17:00 +24°C° 0 mm 3 m/S 765 mmHg 46%
    18:00 +21°C° 0 mm 3 m/S 766 mmHg 54%
    19:00 +19°C° 0 mm 3 m/S 766 mmHg 63%
    20:00 +18°C° 0 mm 3 m/S 766 mmHg 68%
    21:00 +18°C° 0 mm 2 m/S 766 mmHg 73%
    22:00 +17°C° 0 mm 2 m/S 766 mmHg 78%
    23:00 +18°C° 0 mm 1 m/S 766 mmHg 79%

    28 März, Donnerstag

    Zeit Temperatur Niederschläge Wind Luftdruck Luftfeuchtigkeit
    00:00 +16°C° 0 mm 1 m/S 765 mmHg 79%
    01:00 +15°C° 0 mm 0 m/S 764 mmHg 80%
    02:00 +16°C° 0 mm 1 m/S 764 mmHg 77%
    03:00 +16°C° 0 mm 2 m/S 764 mmHg 73%
    04:00 +16°C° 0 mm 2 m/S 764 mmHg 70%
    05:00 +16°C° 0 mm 3 m/S 764 mmHg 68%
    06:00 +17°C° 0 mm 4 m/S 764 mmHg 66%
    07:00 +17°C° 0 mm 4 m/S 764 mmHg 63%
    08:00 +19°C° 0 mm 5 m/S 763 mmHg 60%
    09:00 +20°C° 0 mm 5 m/S 763 mmHg 57%
    10:00 +22°C° 0 mm 5 m/S 763 mmHg 54%
    11:00 +25°C° 0 mm 5 m/S 763 mmHg 50%
    12:00 +27°C° 0 mm 5 m/S 762 mmHg 45%
    13:00 +29°C° 0 mm 4 m/S 761 mmHg 41%
    14:00 +29°C° 0 mm 4 m/S 761 mmHg 40%
    15:00 +29°C° 0 mm 3 m/S 760 mmHg 40%
    16:00 +29°C° 0 mm 3 m/S 759 mmHg 39%
    17:00 +28°C° 0.1 mm 3 m/S 759 mmHg 44%
    18:00 +26°C° 0.1 mm 2 m/S 759 mmHg 50%
    19:00 +25°C° 0.1 mm 2 m/S 760 mmHg 55%
    20:00 +23°C° 0 mm 2 m/S 760 mmHg 61%
    21:00 +21°C° 0 mm 2 m/S 760 mmHg 67%
    22:00 +19°C° 0 mm 2 m/S 760 mmHg 73%
    23:00 +19°C° 0 mm 2 m/S 759 mmHg 76%
    Mehr zeigen